Вернуться в каталог

FENGYUN 1C DEB

АктивенSSO
NORAD 31017·DEBRIS·🇨🇳 China

Запущен May 10, 1999 с Taiyuan Satellite Launch Center

Loading…

Ближайшие Пролёты (ближайшие 24 часа)

TLE

СвежийSource: Space-Track

Эпоха: Sep 14, 2026, 04:23 UTC

1 31017U 99025BDK 26257.18274485  .00000401  00000-0  24201-3 0  9995
2 31017  98.7062 238.6826 0111655 290.1998 129.6159 14.09131329  1746

Отслеживайте FENGYUN 1C DEB в реальном времени с AllMySat

Download on the App Store